EJA111 MYGF-KRDU

Flight info

Callsign EJA111
Flight time 1h 30m
Altitude 41000
Route BUUCK2 ULAMA JAZZI AR3 GARIC BLOGS3
Aircraft GLEX/M-VGDW/C

Departure

Time 2026-05-07 02:52
Airport Grand Bahama International Airport (MYGF)

Arrival

Time 2026-05-07 04:22
Airport Raleigh-Durham International Airport (KRDU)
Time Latitude Longitude Altitude Speed Heading
2026-05-07 02:37 26.54881 -78.70314 18 ft 0 kts 268°
2026-05-07 02:46 26.54881 -78.70317 18 ft 2 kts 269°
2026-05-07 02:46 26.54881 -78.70319 18 ft 0 kts 270°
2026-05-07 02:48 26.54882 -78.70325 18 ft 3 kts 272°
2026-05-07 02:48 26.54908 -78.70379 17 ft 13 kts 306°
2026-05-07 02:48 26.54958 -78.70497 17 ft 21 kts 279°
2026-05-07 02:49 26.54977 -78.70683 18 ft 26 kts 272°
2026-05-07 02:49 26.54983 -78.70906 18 ft 23 kts 272°
2026-05-07 02:49 26.54991 -78.70991 18 ft 5 kts 297°
2026-05-07 02:49 26.55029 -78.71011 18 ft 0 kts
2026-05-07 02:51 26.55050 -78.71009 18 ft 8 kts
2026-05-07 02:51 26.55142 -78.70992 18 ft 17 kts 24°
2026-05-07 02:51 26.55230 -78.70837 18 ft 48 kts 60°
2026-05-07 02:51 26.55561 -78.70171 26 ft 142 kts 60°
2026-05-07 02:52 26.56125 -78.69095 600 ft 173 kts 57°
2026-05-07 02:52 26.56785 -78.67909 1399 ft 193 kts 65°
2026-05-07 02:52 26.57364 -78.66451 1884 ft 236 kts 58°
2026-05-07 02:52 26.58297 -78.64745 2513 ft 274 kts 58°
2026-05-07 02:53 26.59251 -78.62882 3765 ft 283 kts 59°
2026-05-07 02:53 26.60562 -78.61465 5528 ft 269 kts 26°
2026-05-07 02:53 26.62382 -78.61096 6623 ft 280 kts 355°
2026-05-07 02:53 26.64176 -78.61904 7626 ft 291 kts 322°
2026-05-07 02:54 26.65459 -78.63630 8742 ft 296 kts 297°
2026-05-07 02:54 26.66101 -78.65822 9818 ft 300 kts 285°
2026-05-07 02:54 26.66566 -78.68088 10809 ft 305 kts 282°
2026-05-07 02:54 26.66971 -78.70426 11756 ft 310 kts 275°
2026-05-07 02:55 26.67017 -78.72810 12683 ft 313 kts 271°
2026-05-07 02:55 26.67044 -78.75256 13592 ft 317 kts 271°
2026-05-07 02:55 26.67074 -78.77705 14513 ft 319 kts 271°
2026-05-07 02:55 26.67105 -78.80168 15440 ft 320 kts 271°
2026-05-07 02:56 26.67137 -78.82639 16330 ft 321 kts 271°
2026-05-07 02:56 26.67169 -78.85143 17199 ft 323 kts 271°
2026-05-07 02:56 26.67202 -78.87647 17990 ft 326 kts 271°
2026-05-07 02:56 26.67233 -78.90168 18737 ft 330 kts 270°
2026-05-07 02:57 26.67265 -78.92739 19486 ft 333 kts 270°
2026-05-07 02:57 26.67297 -78.95385 20226 ft 336 kts 270°
2026-05-07 02:57 26.67328 -78.98038 20876 ft 340 kts 270°
2026-05-07 02:57 26.67441 -79.00732 21460 ft 346 kts 281°
2026-05-07 02:58 26.68536 -79.03158 22036 ft 353 kts 309°
2026-05-07 02:58 26.70522 -79.04779 22630 ft 359 kts 335°
2026-05-07 02:58 26.72981 -79.05279 23164 ft 366 kts
2026-05-07 02:58 26.75447 -79.04631 23724 ft 369 kts 15°
2026-05-07 02:59 26.77974 -79.04022 24264 ft 372 kts 11°
2026-05-07 02:59 26.80528 -79.03461 24795 ft 376 kts 10°
2026-05-07 02:59 26.83117 -79.02895 25360 ft 379 kts 10°
2026-05-07 02:59 26.85718 -79.02325 25916 ft 382 kts 10°
2026-05-07 03:00 26.88354 -79.01746 26461 ft 385 kts 10°
2026-05-07 03:00 26.91073 -79.01150 27007 ft 389 kts 10°
2026-05-07 03:00 26.93781 -79.00555 27531 ft 392 kts 10°
2026-05-07 03:00 26.96433 -78.99974 28050 ft 395 kts 10°
2026-05-07 03:01 26.99160 -78.99375 28578 ft 398 kts 10°
2026-05-07 03:01 27.01900 -78.98773 29095 ft 401 kts 10°
2026-05-07 03:01 27.04622 -78.98175 29593 ft 404 kts 11°
2026-05-07 03:01 27.07412 -78.97562 30097 ft 407 kts 11°
2026-05-07 03:02 27.10237 -78.96940 30601 ft 410 kts 11°
2026-05-07 03:02 27.13046 -78.96321 31087 ft 413 kts 11°
2026-05-07 03:02 27.15900 -78.95692 31559 ft 416 kts 11°
2026-05-07 03:02 27.18777 -78.95058 32025 ft 419 kts 11°
2026-05-07 03:03 27.21631 -78.94428 32482 ft 422 kts 11°
2026-05-07 03:03 27.24519 -78.93790 32933 ft 425 kts 11°
2026-05-07 03:03 27.27437 -78.93146 33373 ft 428 kts 11°
2026-05-07 03:03 27.30374 -78.92497 33807 ft 431 kts 11°
2026-05-07 03:04 27.33313 -78.91847 34234 ft 433 kts 11°
2026-05-07 03:04 27.36286 -78.91190 34652 ft 436 kts 11°
2026-05-07 03:04 27.39288 -78.90524 35051 ft 439 kts 11°
2026-05-07 03:04 27.42290 -78.89859 35443 ft 442 kts 11°
2026-05-07 03:05 27.45321 -78.89188 35826 ft 445 kts 11°
2026-05-07 03:05 27.48358 -78.88514 36197 ft 447 kts 11°
2026-05-07 03:05 27.51405 -78.87838 36545 ft 450 kts 11°
2026-05-07 03:05 27.54503 -78.87151 36882 ft 454 kts 11°
2026-05-07 03:06 27.57618 -78.86459 37220 ft 457 kts 11°
2026-05-07 03:06 27.60761 -78.85761 37552 ft 460 kts 11°
2026-05-07 03:06 27.63889 -78.85065 37865 ft 463 kts 11°
2026-05-07 03:06 27.67049 -78.84362 38174 ft 466 kts 11°
2026-05-07 03:07 27.70269 -78.83645 38483 ft 468 kts 11°
2026-05-07 03:07 27.73460 -78.82934 38780 ft 471 kts 11°
2026-05-07 03:07 27.76704 -78.82211 39108 ft 474 kts 11°
2026-05-07 03:07 27.79931 -78.81492 39420 ft 477 kts 11°
2026-05-07 03:08 27.83214 -78.80759 39748 ft 480 kts 11°
2026-05-07 03:08 27.86498 -78.80026 40080 ft 483 kts 11°
2026-05-07 03:08 27.89807 -78.79286 40411 ft 485 kts 11°
2026-05-07 03:08 27.93139 -78.78541 40742 ft 488 kts 11°
2026-05-07 03:09 27.96479 -78.77794 41058 ft 490 kts 11°
2026-05-07 03:09 27.99849 -78.77039 41128 ft 499 kts 11°
2026-05-07 03:09 28.06759 -78.75491 41146 ft 515 kts 11°
2026-05-07 03:10 28.13900 -78.73889 41095 ft 527 kts 11°
2026-05-07 03:10 28.21112 -78.72269 41064 ft 530 kts 11°
2026-05-07 03:11 28.28373 -78.70635 41082 ft 531 kts 11°
2026-05-07 03:11 28.35626 -78.69002 41101 ft 527 kts 11°
2026-05-07 03:12 28.39153 -78.68206 41086 ft 512 kts 11°
2026-05-07 03:12 28.42610 -78.67426 41082 ft 501 kts 11°
2026-05-07 03:12 28.46662 -78.66511 41083 ft 495 kts 11°
2026-05-07 03:13 28.53330 -78.65003 41081 ft 487 kts 11°
2026-05-07 03:13 28.59959 -78.63502 41078 ft 480 kts 11°
2026-05-07 03:14 28.66450 -78.62032 41075 ft 474 kts 11°
2026-05-07 03:15 28.76076 -78.59847 41081 ft 465 kts 11°
2026-05-07 03:15 28.82344 -78.58421 41085 ft 459 kts 11°
2026-05-07 03:16 28.88592 -78.56998 41085 ft 454 kts 11°
2026-05-07 03:16 28.94753 -78.55595 41084 ft 449 kts 11°
2026-05-07 03:17 29.00874 -78.54198 41083 ft 447 kts 11°
2026-05-07 03:17 29.07056 -78.52786 41090 ft 459 kts 11°
2026-05-07 03:18 29.13373 -78.51341 41089 ft 470 kts 11°
2026-05-07 03:18 29.19894 -78.49847 41089 ft 482 kts 11°
2026-05-07 03:19 29.26528 -78.48325 41090 ft 493 kts 10°
2026-05-07 03:19 29.33301 -78.46770 41088 ft 498 kts 10°
2026-05-07 03:20 29.40107 -78.45204 41085 ft 499 kts 10°
2026-05-07 03:20 29.46915 -78.43637 41082 ft 500 kts 10°
2026-05-07 03:21 29.53745 -78.42062 41082 ft 501 kts 10°
2026-05-07 03:21 29.60606 -78.40478 41083 ft 501 kts 10°
2026-05-07 03:22 29.67441 -78.38897 41086 ft 502 kts 10°
2026-05-07 03:22 29.74268 -78.37316 41089 ft 502 kts 10°
2026-05-07 03:23 29.81090 -78.35734 41090 ft 502 kts 10°
2026-05-07 03:23 29.87971 -78.34136 41089 ft 502 kts 11°
2026-05-07 03:24 29.94806 -78.32547 41089 ft 502 kts 11°
2026-05-07 03:24 30.01644 -78.30956 41089 ft 502 kts 11°
2026-05-07 03:25 30.08522 -78.29352 41090 ft 502 kts 11°
2026-05-07 03:25 30.15338 -78.27760 41089 ft 502 kts 11°
2026-05-07 03:26 30.22191 -78.26157 41087 ft 502 kts 11°
2026-05-07 03:26 30.29011 -78.24560 41086 ft 501 kts 10°
2026-05-07 03:27 30.35852 -78.22956 41086 ft 501 kts 11°
2026-05-07 03:27 30.42711 -78.21345 41087 ft 501 kts 11°
2026-05-07 03:28 30.49516 -78.19745 41087 ft 501 kts 11°
2026-05-07 03:28 30.56360 -78.18133 41088 ft 501 kts 11°
2026-05-07 03:29 30.63190 -78.16522 41088 ft 501 kts 11°
2026-05-07 03:29 30.70042 -78.14904 41089 ft 501 kts 11°
2026-05-07 03:30 30.76844 -78.13295 41095 ft 501 kts 11°
2026-05-07 03:30 30.83710 -78.11668 41101 ft 501 kts 11°
2026-05-07 03:31 30.90533 -78.10050 41101 ft 501 kts 11°
2026-05-07 03:31 30.97369 -78.08426 41101 ft 501 kts 11°
2026-05-07 03:32 31.04206 -78.06799 41101 ft 501 kts 11°
2026-05-07 03:32 31.11003 -78.05180 41101 ft 501 kts 11°
2026-05-07 03:33 31.17836 -78.03549 41098 ft 501 kts 11°
2026-05-07 03:33 31.24696 -78.01910 41096 ft 501 kts 11°
2026-05-07 03:34 31.31513 -78.00279 41094 ft 501 kts 11°
2026-05-07 03:34 31.38321 -77.98646 41095 ft 501 kts 11°
2026-05-07 03:35 31.45150 -77.97008 41096 ft 501 kts 11°
2026-05-07 03:35 31.51982 -77.95365 41093 ft 501 kts 11°
2026-05-07 03:36 31.58812 -77.93721 41094 ft 501 kts 11°
2026-05-07 03:36 31.65613 -77.92081 41096 ft 501 kts 11°
2026-05-07 03:37 31.72448 -77.90430 41097 ft 501 kts 11°
2026-05-07 03:37 31.79263 -77.88783 41097 ft 501 kts 11°
2026-05-07 03:38 31.86097 -77.87128 41094 ft 501 kts 11°
2026-05-07 03:38 31.92999 -77.86575 41093 ft 499 kts 356°
2026-05-07 03:39 31.99929 -77.87000 41091 ft 499 kts 356°
2026-05-07 03:39 32.06902 -77.87409 41091 ft 499 kts 356°
2026-05-07 03:40 32.13803 -77.87811 41090 ft 499 kts 356°
2026-05-07 03:40 32.20758 -77.88218 41090 ft 499 kts 356°
2026-05-07 03:41 32.27695 -77.88624 41088 ft 499 kts 356°
2026-05-07 03:41 32.34615 -77.89029 41086 ft 499 kts 356°
2026-05-07 03:42 32.41568 -77.89437 41090 ft 499 kts 356°
2026-05-07 03:42 32.48479 -77.89843 41095 ft 499 kts 356°
2026-05-07 03:43 32.55409 -77.90250 41096 ft 499 kts 356°
2026-05-07 03:43 32.62352 -77.90660 41096 ft 499 kts 356°
2026-05-07 03:44 32.69261 -77.91067 41097 ft 498 kts 356°
2026-05-07 03:44 32.76203 -77.91479 41099 ft 498 kts 356°
2026-05-07 03:45 32.83126 -77.91888 41099 ft 498 kts 356°
2026-05-07 03:45 32.90012 -77.92297 41099 ft 498 kts 356°
2026-05-07 03:46 32.96944 -77.92709 41099 ft 497 kts 356°
2026-05-07 03:46 33.03832 -77.93118 41099 ft 497 kts 356°
2026-05-07 03:47 33.10738 -77.93529 41099 ft 496 kts 356°
2026-05-07 03:47 33.17623 -77.93940 41100 ft 496 kts 355°
2026-05-07 03:48 33.24524 -77.94353 41100 ft 495 kts 355°
2026-05-07 03:48 33.31394 -77.94763 41100 ft 495 kts 355°
2026-05-07 03:49 33.38261 -77.95175 41100 ft 495 kts 355°
2026-05-07 03:49 33.45138 -77.95589 41100 ft 494 kts 355°
2026-05-07 03:50 33.51978 -77.96001 41101 ft 494 kts 355°
2026-05-07 03:50 33.58843 -77.96415 41101 ft 494 kts 355°
2026-05-07 03:51 33.65692 -77.96828 41102 ft 493 kts 355°
2026-05-07 03:51 33.72561 -77.97244 41102 ft 493 kts 355°
2026-05-07 03:52 33.79416 -77.97659 41102 ft 493 kts 355°
2026-05-07 03:52 33.85112 -77.98004 41103 ft 493 kts 355°
2026-05-07 03:53 33.93143 -77.97405 41100 ft 495 kts
2026-05-07 03:53 33.96531 -77.96933 41102 ft 482 kts
2026-05-07 03:53 33.99743 -77.96487 41094 ft 460 kts
2026-05-07 03:53 34.02883 -77.96052 41093 ft 438 kts
2026-05-07 03:54 34.05828 -77.95644 41082 ft 418 kts
2026-05-07 03:54 34.08641 -77.95255 41078 ft 399 kts
2026-05-07 03:54 34.11375 -77.94876 41083 ft 392 kts
2026-05-07 03:55 34.16901 -77.94112 41105 ft 404 kts
2026-05-07 03:55 34.22619 -77.93320 40708 ft 427 kts
2026-05-07 03:55 34.25614 -77.92902 39873 ft 428 kts
2026-05-07 03:56 34.28515 -77.92497 39279 ft 419 kts
2026-05-07 03:56 34.31414 -77.92093 38703 ft 414 kts
2026-05-07 03:56 34.34232 -77.91702 37946 ft 415 kts
2026-05-07 03:56 34.37112 -77.91299 37092 ft 418 kts
2026-05-07 03:57 34.40013 -77.90894 36243 ft 420 kts
2026-05-07 03:57 34.42903 -77.90488 35404 ft 422 kts
2026-05-07 03:57 34.45850 -77.90074 34565 ft 425 kts
2026-05-07 03:57 34.48796 -77.89660 33778 ft 427 kts
2026-05-07 03:58 34.51703 -77.89250 33550 ft 420 kts
2026-05-07 03:58 34.57697 -77.88410 33237 ft 446 kts
2026-05-07 03:58 34.60776 -77.87977 32515 ft 441 kts
2026-05-07 03:59 34.63780 -77.87553 31891 ft 437 kts
2026-05-07 03:59 34.66831 -77.87123 31268 ft 438 kts
2026-05-07 03:59 34.69867 -77.86696 30603 ft 439 kts
2026-05-07 03:59 34.72866 -77.86274 29930 ft 440 kts
2026-05-07 04:00 34.75901 -77.85845 29252 ft 440 kts
2026-05-07 04:00 34.78961 -77.85413 28593 ft 441 kts
2026-05-07 04:00 34.82007 -77.84982 27945 ft 441 kts
2026-05-07 04:00 34.85038 -77.84553 27295 ft 442 kts
2026-05-07 04:01 34.88104 -77.84119 26640 ft 442 kts
2026-05-07 04:01 34.90148 -77.83829 26204 ft 442 kts
2026-05-07 04:01 34.94195 -77.83255 25340 ft 441 kts
2026-05-07 04:01 34.97234 -77.82823 24691 ft 440 kts
2026-05-07 04:02 35.00286 -77.82389 24038 ft 439 kts
2026-05-07 04:02 35.03346 -77.81954 23380 ft 438 kts
2026-05-07 04:02 35.06414 -77.81518 22720 ft 437 kts
2026-05-07 04:02 35.09450 -77.81085 22070 ft 435 kts
2026-05-07 04:03 35.12418 -77.80662 21435 ft 434 kts
2026-05-07 04:03 35.15429 -77.80233 20791 ft 432 kts
2026-05-07 04:03 35.18436 -77.79803 20166 ft 431 kts
2026-05-07 04:03 35.21403 -77.79380 19555 ft 425 kts
2026-05-07 04:04 35.24220 -77.78973 18933 ft 390 kts
2026-05-07 04:04 35.26902 -77.78591 18381 ft 385 kts
2026-05-07 04:04 35.29638 -77.78202 17847 ft 389 kts
2026-05-07 04:04 35.32318 -77.77819 17325 ft 388 kts
2026-05-07 04:05 35.34994 -77.77435 16798 ft 386 kts
2026-05-07 04:05 35.36770 -77.77179 16446 ft 384 kts
2026-05-07 04:05 35.40286 -77.76675 15755 ft 380 kts
2026-05-07 04:05 35.42886 -77.76558 15225 ft 370 kts 346°
2026-05-07 04:06 35.45204 -77.77753 14749 ft 355 kts 319°
2026-05-07 04:06 35.46810 -77.79910 14322 ft 343 kts 297°
2026-05-07 04:06 35.48035 -77.82426 13910 ft 341 kts 295°
2026-05-07 04:06 35.49195 -77.85070 13715 ft 348 kts 294°
2026-05-07 04:07 35.50320 -77.87726 13667 ft 345 kts 294°
2026-05-07 04:07 35.51048 -77.89467 13628 ft 343 kts 294°
2026-05-07 04:07 35.52486 -77.92934 13552 ft 342 kts 294°
2026-05-07 04:07 35.53581 -77.95588 13497 ft 342 kts 294°
2026-05-07 04:08 35.54645 -77.98170 13444 ft 342 kts 294°
2026-05-07 04:08 35.55735 -78.00815 13392 ft 343 kts 294°
2026-05-07 04:08 35.56456 -78.02569 13233 ft 346 kts 294°
2026-05-07 04:08 35.57889 -78.06055 12871 ft 342 kts 294°
2026-05-07 04:09 35.58954 -78.08645 12531 ft 338 kts 294°
2026-05-07 04:09 35.60013 -78.11227 12180 ft 334 kts 294°
2026-05-07 04:09 35.61073 -78.13813 11809 ft 332 kts 294°
2026-05-07 04:09 35.62116 -78.16361 11442 ft 331 kts 294°
2026-05-07 04:10 35.63131 -78.18843 11387 ft 322 kts 294°
2026-05-07 04:10 35.63782 -78.20433 11332 ft 309 kts 294°
2026-05-07 04:10 35.65022 -78.23463 11159 ft 284 kts 294°
2026-05-07 04:10 35.65600 -78.24877 11084 ft 273 kts 294°
2026-05-07 04:11 35.66822 -78.27527 10674 ft 263 kts 298°
2026-05-07 04:11 35.67435 -78.28826 10477 ft 259 kts 297°
2026-05-07 04:11 35.68318 -78.30708 10188 ft 253 kts 297°
2026-05-07 04:11 35.69458 -78.33138 9975 ft 238 kts 297°
2026-05-07 04:12 35.70000 -78.34294 9819 ft 234 kts 297°
2026-05-07 04:12 35.71084 -78.36610 9473 ft 228 kts 297°
2026-05-07 04:12 35.71875 -78.38299 9218 ft 225 kts 297°
2026-05-07 04:12 35.72371 -78.39362 9059 ft 222 kts 297°
2026-05-07 04:13 35.73599 -78.41351 8854 ft 213 kts 306°
2026-05-07 04:13 35.74240 -78.42277 8738 ft 210 kts 306°
2026-05-07 04:13 35.75504 -78.44102 8437 ft 206 kts 306°
2026-05-07 04:13 35.76434 -78.45445 8211 ft 204 kts 306°
2026-05-07 04:14 35.77044 -78.46323 8063 ft 203 kts 306°
2026-05-07 04:14 35.77957 -78.47640 7841 ft 201 kts 306°
2026-05-07 04:14 35.79144 -78.49352 7593 ft 196 kts 306°
2026-05-07 04:14 35.79740 -78.50214 7441 ft 197 kts 306°
2026-05-07 04:15 35.80932 -78.51937 7144 ft 199 kts 306°
2026-05-07 04:15 35.81825 -78.53229 6922 ft 201 kts 306°
2026-05-07 04:15 35.82762 -78.54569 6694 ft 208 kts 309°
2026-05-07 04:15 35.84033 -78.55555 6459 ft 218 kts 325°
2026-05-07 04:16 35.85360 -78.56463 6282 ft 221 kts 327°
2026-05-07 04:16 35.86729 -78.57393 6203 ft 220 kts 327°
2026-05-07 04:16 35.87626 -78.58004 6150 ft 219 kts 327°
2026-05-07 04:16 35.88965 -78.58916 6073 ft 219 kts 327°
2026-05-07 04:17 35.90444 -78.59418 5973 ft 240 kts
2026-05-07 04:17 35.92422 -78.58000 5884 ft 255 kts 50°
2026-05-07 04:17 35.93775 -78.56599 5437 ft 262 kts 21°
2026-05-07 04:17 35.94972 -78.56364 5099 ft 256 kts 355°
2026-05-07 04:18 35.96561 -78.57142 4621 ft 242 kts 316°
2026-05-07 04:18 35.97551 -78.58743 4262 ft 228 kts 292°
2026-05-07 04:18 35.98281 -78.61107 3847 ft 216 kts 284°
2026-05-07 04:18 35.98719 -78.62897 3563 ft 214 kts 283°
2026-05-07 04:19 35.99077 -78.64691 3284 ft 216 kts 270°
2026-05-07 04:19 35.98528 -78.66359 3031 ft 211 kts 226°
2026-05-07 04:19 35.97526 -78.67690 2995 ft 211 kts 223°
2026-05-07 04:19 35.96515 -78.69001 2924 ft 216 kts 225°
2026-05-07 04:20 35.95507 -78.70335 2868 ft 208 kts 224°
2026-05-07 04:20 35.94826 -78.71204 2817 ft 213 kts 223°
2026-05-07 04:20 35.93407 -78.72985 1975 ft 225 kts 223°
2026-05-07 04:21 35.91675 -78.75026 1035 ft 201 kts 223°
2026-05-07 04:21 35.90809 -78.76118 790 ft 205 kts 225°
2026-05-07 04:21 35.90600 -78.76418 846 ft 202 kts 227°
2026-05-07 04:21 35.89916 -78.77274 626 ft 210 kts 218°
2026-05-07 04:22 35.88938 -78.78355 413 ft 163 kts 223°
2026-05-07 04:22 35.88245 -78.79196 393 ft 118 kts 225°
2026-05-07 04:22 35.87630 -78.79956 375 ft 123 kts 220°
2026-05-07 04:22 35.87197 -78.80290 368 ft 32 kts 239°
2026-05-07 04:23 35.87207 -78.80357 367 ft 18 kts
2026-05-07 04:23 35.87258 -78.80319 367 ft 10 kts 42°
2026-05-07 04:23 35.87320 -78.80248 368 ft 8 kts 43°
2026-05-07 04:23 35.87392 -78.80112 371 ft 34 kts 81°
2026-05-07 04:24 35.87439 -78.79972 374 ft 21 kts 60°
2026-05-07 04:24 35.87567 -78.79839 378 ft 27 kts 37°
2026-05-07 04:24 35.87730 -78.79650 382 ft 40 kts 46°
2026-05-07 04:24 35.87945 -78.79377 390 ft 46 kts 46°
2026-05-07 04:25 35.88263 -78.79008 398 ft 48 kts 44°
2026-05-07 04:25 35.88502 -78.78702 401 ft 50 kts 49°
2026-05-07 04:25 35.88673 -78.78488 401 ft 52 kts 45°
2026-05-07 04:25 35.89026 -78.78049 399 ft 55 kts 45°
2026-05-07 04:26 35.89163 -78.77881 400 ft 30 kts 43°
2026-05-07 04:26 35.89304 -78.77751 401 ft 16 kts 352°
2026-05-07 04:26 35.89283 -78.77927 400 ft 35 kts 226°
2026-05-07 04:26 35.88877 -78.78434 400 ft 127 kts 226°
2026-05-07 04:27 35.88224 -78.79382 869 ft 157 kts 229°
2026-05-07 04:27 35.87793 -78.80054 1337 ft 150 kts 230°
2026-05-07 04:27 35.87339 -78.81511 1702 ft 148 kts 298°
2026-05-07 04:27 35.88222 -78.81747 1845 ft 146 kts 41°
2026-05-07 04:28 35.88865 -78.80749 1926 ft 141 kts 52°
2026-05-07 04:28 35.89206 -78.80255 1934 ft 136 kts 51°
2026-05-07 04:33 35.89431 -78.79929 1879 ft 138 kts 51°
2026-05-07 04:33 35.89751 -78.79449 1804 ft 140 kts 53°
2026-05-07 04:39 35.90408 -78.78344 1780 ft 137 kts 58°
2026-05-07 04:39 35.90787 -78.77703 1754 ft 137 kts 51°
2026-05-07 04:39 35.91438 -78.76828 1727 ft 136 kts 47°
2026-05-07 04:39 35.92102 -78.76004 1732 ft 133 kts 45°
2026-05-07 04:40 35.93015 -78.74972 1701 ft 132 kts 42°
2026-05-07 04:40 35.93489 -78.74487 1704 ft 130 kts 40°
2026-05-07 04:40 35.94092 -78.73663 1499 ft 136 kts 67°
2026-05-07 04:40 35.94002 -78.72626 1400 ft 127 kts 132°
2026-05-07 04:41 35.93203 -78.72362 1314 ft 128 kts 195°
2026-05-07 04:41 35.92502 -78.73066 1231 ft 131 kts 233°
2026-05-07 04:41 35.92039 -78.74014 1214 ft 129 kts 240°
2026-05-07 04:41 35.91570 -78.74987 1149 ft 131 kts 235°
2026-05-07 04:42 35.91031 -78.75829 1009 ft 120 kts 223°
2026-05-07 04:42 35.90414 -78.76530 781 ft 122 kts 223°
2026-05-07 04:42 35.89819 -78.77271 575 ft 121 kts 223°
2026-05-07 04:42 35.89222 -78.78001 409 ft 117 kts 223°
2026-05-07 04:43 35.88680 -78.78673 400 ft 104 kts 224°
2026-05-07 04:43 35.88245 -78.79205 393 ft 63 kts 226°
2026-05-07 04:43 35.88036 -78.79452 387 ft 21 kts 214°
2026-05-07 04:43 35.87940 -78.79454 388 ft 9 kts 125°
2026-05-07 04:44 35.87946 -78.79386 389 ft 14 kts 50°
2026-05-07 04:44 35.88074 -78.79227 393 ft 35 kts 45°
2026-05-07 04:44 35.88264 -78.78993 398 ft 41 kts 46°
2026-05-07 04:44 35.88457 -78.78756 401 ft 23 kts 44°
2026-05-07 04:45 35.88520 -78.78595 402 ft 19 kts 69°
2026-05-07 04:45 35.88535 -78.78550 403 ft 0 kts 79°
2026-05-07 04:45 35.88535 -78.78547 403 ft 2 kts 81°
2026-05-07 04:46 35.88528 -78.78487 403 ft 5 kts 80°
2026-05-07 04:46 35.88554 -78.78431 403 ft 3 kts 107°
2026-05-07 04:46 35.88524 -78.78444 404 ft 8 kts 225°
2026-05-07 04:46 35.88509 -78.78462 404 ft 0 kts 224°